NOAA 16 DEB, 41243

Orbit data source: Space-Track

NOAA 16 DEB, 41243 is space debris in SSO originally from a launch on Thu, 21 Sep 2000 UTC launched from the Air Force Western Test Range (AFWTR). Debris objects in space refer to the collection of defunct objects orbiting the Earth. Examples of debris include non-operational satellites, rocket bodies, and fragments generated from explosions, collisions, or faulty payload assembly.

Loading next visibility...
Identifier
41243, 2000-055ET
Orbit
SSO
Country
Flag of USUS
Related business
Manufacturer
Unknown
Mission
Spacecraft
Bus & Motor
Unknown
Mass
Unknown
Launch date (UTC)
2000-09-21 (25 years ago)
Launch vehicle
Unknown
Launch site
Air Force Western Test Range (AFWTR)
Object type
Payload
Rocket body
Debris
Shape & HBR
Unknown shape, 0.1 m
Radar Cross Section
Small (<0.1 m²)

Expand to show TLE details & history
Last TLE update: 9 hours ago

TLE from 9 hours ago
0 NOAA 16 DEB
1 41243U 00055ET  26034.19217810  .00003570  00000-0  14686-2 0  9990
2 41243  98.7306 117.8747 0004078 113.5498 246.6112 14.27562668521023
Epoch: 2026-02-03T04:36Z
TLE epoch observation values (Epoch: 2026-02-03T04:36:44.187Z)
Latitude
0.00003°
Longitude
-84.68606°
Altitude
803.977 km
Speed
7.451 km/s
True Right ascension
07h 51m 29s
True Declination
0° 00' 00"
Sunlit
Object was in full shadow at epoch
Visualization orbit readout
Latitude
Unknown
Longitude
Unknown
Altitude
Unknown
Speed
Unknown
Apparent Right ascension
Unknown
Apparent Declination
Unknown
Sunlit
N/A
Visualization observer readout
Local Sidereal Time
15:16:13
Azimuth
Unknown
Elevation
Unknown
Doppler factor
Unknown
Orbital elements
Apogee altitude
799.965 km
Perigee altitude
794.113 km
Semi-major axis
7,175.176 km
Eccentricity
0.00041
Inclination
98.7306°
RAAN
117.8747°
Arg. of periapsis
113.5498°
True anomaly
246.56832°
Mean anomaly
246.6112°
Eccentric anomaly
246.58976°
Mean motion
3.57104 °/min
Orbital period
100.81 mins
BSTAR
0.0014686
Loading maneuver chart data...
Computing Atmospheric mass density...
Loading historical data...
Loading historical data...
Loading historical data...
Loading historical data...
Loading historical data...
Loading historical data...
Loading historical data...

Documentation

Showing up to 5 results
|